Location: Cartignies
(50.0929°N, 3.8447°E)
Time: 14:59:32
(UTC+00:00)

NOSS 2-3 (C) - Pass Details

Date: 12 January 2026
Orbit: 456 x 1719 km, 63.3° (Epoch: 16 February)

Event Time Altitude Azimuth Distance (km) Brightness Sun altitude
Rises 17:29:00 0° 316° (NW) 2,945 7.4 -12.7°
Reaches altitude 10° 17:31:00 10° 318° (NW) 2,161 6.7 -13.0°
Maximum altitude 17:35:56 85° 46° (NE) 871 4.2 -13.7°
Drops below altitude 10° 17:42:51 10° 136° (SE) 2,978 6.8 -14.8°
Sets 17:46:00 0° 137° (SE) 4,147 7.5 -15.3°
